Regional Weather Roundup
Issued by NWS Lake Charles, LA

Home | Current Version | Previous Version | Text Only | Print | Product List | Glossary On
Versions: 1 2 3 4 5 6 7 8 9 10 11 12 13 14 15 16 17 18 19 20 21 22 23 24 25 26 27 28 29 30 31 32 33 34 35 36 37 38 39 40 41 42 43 44 45 46 47 48 49 50
000
ASUS44 KLCH 060010
RWRLCH
RWRLCH
REGIONAL WEATHER ROUNDUP
NATIONAL WEATHER SERVICE LAKE CHARLES LA
700 PM CDT SUN JUL 05 2015

Note: "fair" indicates few or no clouds below 12,000 feet with no
significant weather and/or obstructions to visibility.


ACROSS SOUTHEAST TEXAS

CITY           SKY/WX    TMP DP  RH WIND       PRES   REMARKS
BEAUMONT       MOSUNNY   86  75  69 S12       30.03R
BEAUMONT CITY    N/A     86  75  71 S8        30.03R
ORANGE         PTCLDY    86  70  57 S8        30.05S
JASPER         MOSUNNY   90  76  62 S5        30.05R HX 101
$$

ACROSS CENTRAL LOUISIANA

CITY           SKY/WX    TMP DP  RH WIND       PRES   REMARKS
LEESVILLE      CLOUDY    87  76  69 S9        30.05R
FULLERTON        N/A     78  70  76 VRB6      30.06R
ALEXANDRIA INT CLOUDY    72  69  90 E8        30.09S
ESLER FIELD    CLOUDY    72  69  90 E6        30.12S
DERIDDER         N/A     87  76  68 S9        30.06F
OAKDALE        CLOUDY    77  74  91 NE6       30.09R
OPELOUSAS      CLOUDY    72  70  93 NE8       30.11S
$$

ACROSS SOUTHWEST AND SOUTH CENTRAL LOUISIANA

CITY           SKY/WX    TMP DP  RH WIND       PRES   REMARKS
SULPHUR        PTCLDY    87  75  68 S7        30.06S
LAKE CHARLES   PTSUNNY   86  74  67 S7        30.05R
CHENNAULT INT  SUNNY     88  73  62 S12       30.06R
CAMERON PHI    PTCLDY    86  75  70 SW9       30.09R
DEQUINCY         N/A     85  77  77 S7        30.05S
JENNINGS         N/A     85  76  73 S6        30.07S
LAFAYETTE      CLOUDY    81  76  84 NE9       30.10R
NEW IBERIA     NOT AVBL
ABBEVILLE        N/A     83  78  84 CALM      30.10R
PATTERSON      CLOUDY    84  75  74 SW3       30.11S
SALT POINT       N/A     85  76  74 CALM      30.08R
$$

SELECTED SITES ACROSS THE REGION

CITY           SKY/WX    TMP DP  RH WIND       PRES   REMARKS
HOUSTON BUSH   MOSUNNY   89  73  59 S9        29.98S
HOUSTON HOBBY  PTSUNNY   88  75  65 S9        29.99S
GALVESTON      MOSUNNY   86  78  77 S15       30.02S
COLLEGE STAT   SUNNY     88  72  58 S12G20    29.96F
CONROE         MOSUNNY   89  71  55 S12       29.99R
HUNTSVILLE     SUNNY     90  72  55 S8        29.98F
LUFKIN         MOSUNNY   91  75  59 SE7       29.99R HX 101
SHREVEPORT     CLOUDY    80  70  71 SE20G30   30.01R THUNDER
MONROE         LGT RAIN  70  69  97 SE5       30.09R
NATCHEZ MS     NOT AVBL
BATON ROUGE    TSTM      69  67  93 VRB6G18   30.18R VSB 1/2
N.O. INTL ARPT CLOUDY    74  71  91 NE13G24   30.18R THUNDER
SLIDELL        LGT RAIN  70  70 100 E7        30.19F
$$

MARINE REPORTS

STATION/POSITION TIME  TEMP    WIND        PRES    VSBY  WAVE
                       AIR SEA DIR/SP/G                  HT/PER
                 (UTC) (F)     (DEG/KT/KT) (MB)    (MI)  (FT/S)
BUOY 30 S HIGH I 2350   85 85  180/ 12/ 14 1016.0R         3/ 6
SEA RIM ST PARK  0000   85     180/  9/ 10 1017.7R
PORT ARTHUR      2300      85  190/  8/ 14 1017.0F
SABINE PASS N    2300   86 86  210/ 11/ 17 1017.2F
TEXAS POINT      NOT AVBL
CALCASIEU PASS   2300   85 85  230/ 11/ 14   N/A
LK CHARLES BEACH 2300   88 85                N/A
MARSH ISLAND     NOT AVBL
FRESH WATER LOCK 2300   85 85  200/  8/  9 1018.0S
AMERADA PASS     2300   85 85  190/  1/  3 1018.8R
$$



USA.gov is the U.S. government's official web portal to all federal, state and local government web resources and services.